Flag for Norway Weather past 2 weeks in Eidsvoll, Norway

55 °F

Passing clouds.

Feels Like: 54 °F
Forecast: 33 / 43 °F
Wind: 6 mph from Northeast

Location: Oslo Gardermoen Airport

Current Time: Oct 4, 2015 at 5:48:00 PM

Latest Report: Oct 4, 2015 at 4:50 PM

Visibility: N/A

Pressure: 29.89 "Hg

Humidity: 55%

Dew point: 39 °F

Location of EidsvollLocation

Historic Weather in Eidsvoll — Graph


Eidsvoll temperature yesterday

Maximum temperature yesterday: 55 °F (at 1:50 PM)
Minimum temperature yesterday: 36 °F (at 7:20 AM)
Average temperature yesterday: 48 °F

Past Weeks' High & Low Weather Summary

High68 °F (Sep 30, 3:50 PM)100% (Sep 22, 5:20 AM)30.69 "Hg (Sep 22, 5:20 AM)
Low36 °F (Oct 3, 7:20 AM)34% (Sep 19, 4:20 PM)29.65 "Hg (Sep 22, 1:50 PM)
Average50 °F75%30.06 "Hg
* Reported Sep 19 4:20 PM — Oct 4 4:20 PM, Eidsvoll, Weather by CustomWeather, © 2015

Note: Actual official high and low records may vary slightly from our data, if they occured in-between our weather recording intervals... More about our weather records


Eidsvoll weather history for previous 24 hours

Time TempWeatherWind HumidityBarometerVisibility
4:20 PM
Sun, Oct 4
57 °FSunny.5 mph55%29.89 "Hg10 mi
3:50 PM57 °FPassing clouds.3 mph55%29.89 "HgN/A
3:20 PM55 °FPassing clouds.1 mph59%29.89 "HgN/A
2:50 PM55 °FPassing clouds.5 mph59%29.89 "HgN/A
2:20 PM57 °FPassing clouds.6 mph51%29.89 "HgN/A
1:50 PM55 °FPassing clouds.2 mph55%29.89 "HgN/A
1:20 PM54 °FSunny.No wind58%29.89 "Hg10 mi
12:50 PM54 °FPassing clouds.2 mph63%29.89 "HgN/A
12:20 PM54 °FPassing clouds.3 mph63%29.89 "HgN/A
11:50 AM52 °FPassing clouds.2 mph67%29.89 "HgN/A
11:20 AM50 °FPassing clouds.3 mph76%29.89 "HgN/A
10:50 AM48 °FPassing clouds.3 mph76%29.89 "HgN/A
10:20 AM46 °FPassing clouds.1 mph87%29.89 "HgN/A
9:50 AM45 °FPassing clouds.1 mph87%29.89 "HgN/A
9:20 AM43 °FFog.2 mph93%29.89 "HgN/A
8:50 AM41 °FFog.No wind93%29.89 "HgN/A
8:20 AM37 °FFog.3 mph100%29.89 "HgN/A
7:50 AM37 °FFog.3 mph93%29.86 "HgN/A
7:20 AM39 °FFog.2 mph93%29.86 "HgN/A
6:50 AM39 °FPassing clouds.5 mph93%29.86 "HgN/A
6:20 AM37 °FPassing clouds.2 mph93%29.86 "HgN/A
5:50 AM37 °FPartly cloudy.2 mph93%29.86 "HgN/A
5:20 AM37 °FPassing clouds.3 mph87%29.86 "HgN/A
4:50 AM41 °FPassing clouds.No wind93%29.86 "HgN/A
4:20 AM39 °FPassing clouds.2 mph93%29.86 "HgN/A
3:50 AM41 °FPassing clouds.2 mph93%29.86 "HgN/A
3:20 AM41 °FPartly cloudy.2 mph93%29.86 "HgN/A
2:50 AM41 °FPassing clouds.2 mph93%29.86 "HgN/A
2:20 AM41 °FPassing clouds.1 mph87%29.86 "HgN/A
1:50 AM43 °FPassing clouds.No wind93%29.86 "HgN/A
1:20 AM45 °FPassing clouds.2 mph87%29.86 "HgN/A
12:50 AM46 °FPassing clouds.No wind87%29.86 "HgN/A
11:20 PM
Sat, Oct 3
46 °FPassing clouds.2 mph93%29.89 "HgN/A
10:50 PM48 °FPassing clouds.3 mph87%29.89 "HgN/A
10:20 PM48 °FPassing clouds.2 mph87%29.89 "HgN/A
9:50 PM48 °FPassing clouds.1 mph87%29.89 "HgN/A
9:20 PM48 °FPassing clouds.6 mph82%29.89 "HgN/A
8:50 PM48 °FPassing clouds.5 mph76%29.89 "HgN/A
8:20 PM48 °FPassing clouds.8 mph76%29.89 "HgN/A
7:50 PM48 °FPassing clouds.8 mph71%29.89 "HgN/A
7:20 PM50 °FPassing clouds.8 mph62%29.89 "HgN/A
6:50 PM50 °FSunny.9 mph58%29.89 "Hg10 mi
6:20 PM52 °FSunny.12 mph54%29.92 "Hg10 mi
5:50 PM54 °FSunny.12 mph51%29.92 "Hg10 mi
5:20 PM54 °FSunny.9 mph51%29.92 "Hg10 mi
Weather by CustomWeather, © 2015

See weather overviewHow to use our weather pages